EW7831 Norefjell NO current weather conditions

sailwx.info

Wind from 261 at 17 knots gusting 22

Air temperature -0.6° C
Dewpoint -3.7° C

Last reported at 2019-Dec-08 23:08 UTC.
Time now 2019-Dec-08 23:34 UTC

Location: N 60°20' E 009°29'.
View on Google Maps.

See reports from other nearby stations

  
Tides and Currents Weather Stations Pressure Air Temp Water Temp Dewpoint Dewpoint Depression Visibility Wind Speed Wind Dir Waves Ship Positions
date/time (UTC)wind fromknots sea level pressurealtimeterstation pressurevisibilityair tempwater tempwave heightnotes
2019-Dec-08 23:08 261 17 gusting 22 -0.6
2019-Dec-08 23:03 260 17 gusting 22 -0.6
2019-Dec-08 22:58 261 18 gusting 26 -0.6
2019-Dec-08 22:53 260 18 gusting 27 -0.6
2019-Dec-08 22:48 260 18 gusting 27 -0.6
2019-Dec-08 22:43 262 19 gusting 27 -0.6
2019-Dec-08 22:38 261 19 gusting 28 -0.6
2019-Dec-08 22:33 257 19 gusting 29 -0.6
2019-Dec-08 22:28 261 19 gusting 29 -0.6
2019-Dec-08 22:23 262 19 gusting 34 -0.6
2019-Dec-08 22:18 255 21 gusting 34 -0.6
2019-Dec-08 22:13 257 21 gusting 34 -0.6
2019-Dec-08 22:08 258 20 gusting 33 -0.6
2019-Dec-08 22:03 255 20 gusting 33 -0.6
2019-Dec-08 21:58 258 21 gusting 32 -0.6
2019-Dec-08 21:53 260 20 gusting 33 -0.6
2019-Dec-08 21:48 259 19 gusting 33 -0.6
2019-Dec-08 21:43 259 19 gusting 31 -0.6
2019-Dec-08 21:38 258 19 gusting 31 -0.6
2019-Dec-08 21:33 258 20 gusting 29 -0.6
2019-Dec-08 21:28 259 20 gusting 33 -0.6
2019-Dec-08 21:23 256 22 gusting 33 -0.6
2019-Dec-08 21:18 255 21 gusting 32 -0.6
2019-Dec-08 21:13 254 21 gusting 33 -0.6
2019-Dec-08 21:08 256 22 gusting 33 -0.6
2019-Dec-08 21:03 258 21 gusting 29 -0.6
2019-Dec-08 20:58 257 22 gusting 32 -0.6
2019-Dec-08 20:53 258 21 gusting 32 -0.6
2019-Dec-08 20:48 257 20 gusting 28 -0.6
2019-Dec-08 20:43 256 20 gusting 31 -0.6
2019-Dec-08 20:38 255 19 gusting 31 -0.6
2019-Dec-08 20:33 258 19 gusting 31 -0.6
2019-Dec-08 20:28 259 21 gusting 32 -0.6
2019-Dec-08 20:23 258 22 gusting 32 -0.6
2019-Dec-08 20:18 258 22 gusting 32 -0.6
2019-Dec-08 20:13 258 22 gusting 33 -0.6
2019-Dec-08 20:08 261 20 gusting 33 -0.6
2019-Dec-08 20:03 265 19 gusting 29 -0.6
2019-Dec-08 19:58 263 20 gusting 31 -0.6
2019-Dec-08 19:53 261 22 gusting 31 -0.6
2019-Dec-08 19:48 261 22 gusting 31 -0.6
2019-Dec-08 19:43 260 24 gusting 36 -0.6
2019-Dec-08 19:38 260 24 gusting 36 -1.1
2019-Dec-08 19:33 257 24 gusting 36 -1.1
2019-Dec-08 19:28 255 26 gusting 36 -0.6
2019-Dec-08 19:23 256 25 gusting 35 -0.6
2019-Dec-08 19:18 256 25 gusting 33 -0.6
2019-Dec-08 19:13 256 26 gusting 35 -0.6
2019-Dec-08 19:08 256 26 gusting 35 -0.6
2019-Dec-08 19:03 256 24 gusting 33 -1.1
2019-Dec-08 18:58 258 24 gusting 32 -1.1
2019-Dec-08 18:53 258 25 gusting 33 -1.1
2019-Dec-08 18:48 260 26 gusting 33 -1.1
2019-Dec-08 18:43 261 26 gusting 35 -1.1
2019-Dec-08 18:38 259 26 gusting 35 -1.1
2019-Dec-08 18:33 255 26 gusting 36 -0.6
2019-Dec-08 18:28 254 26 gusting 36 -0.6
2019-Dec-08 18:23 257 26 gusting 38 -1.1
2019-Dec-08 18:18 257 26 gusting 38 -0.6
2019-Dec-08 18:13 256 26 gusting 38 -0.6
2019-Dec-08 18:08 255 26 gusting 33 -1.1
2019-Dec-08 18:03 256 26 gusting 39 -1.1
2019-Dec-08 17:58 257 26 gusting 39 -1.1
2019-Dec-08 17:53 257 25 gusting 35 -1.1
2019-Dec-08 17:48 259 25 gusting 33 -1.1
2019-Dec-08 17:43 259 25 gusting 33 -1.1
2019-Dec-08 17:38 259 24 gusting 33 -1.1
2019-Dec-08 17:33 257 24 gusting 34 -0.6
2019-Dec-08 17:28 258 26 gusting 34 -0.6
2019-Dec-08 17:23 259 26 gusting 35 -0.6
2019-Dec-08 17:18 259 25 gusting 35 -0.6
2019-Dec-08 17:13 257 25 gusting 35 -0.6
2019-Dec-08 17:08 256 25 gusting 34 -0.6
2019-Dec-08 17:03 256 26 gusting 44 -0.6
2019-Dec-08 16:58 256 26 gusting 44 -0.6
2019-Dec-08 16:53 255 25 gusting 33 -0.6
2019-Dec-08 16:48 254 24 gusting 33 -0.6
2019-Dec-08 16:43 254 25 gusting 33 -0.6
2019-Dec-08 16:38 254 25 gusting 33 -0.6
2019-Dec-08 16:33 252 25 gusting 33 -0.6
2019-Dec-08 16:28 252 22 gusting 33 -0.6
2019-Dec-08 16:23 253 22 gusting 32 -0.6
2019-Dec-08 16:18 251 24 gusting 36 -0.6
2019-Dec-08 16:13 250 24 gusting 36 -0.6
2019-Dec-08 16:08 252 22 gusting 34 -0.6
2019-Dec-08 16:03 254 22 gusting 33 -0.6
2019-Dec-08 15:58 255 25 gusting 36 -0.6
2019-Dec-08 15:53 254 26 gusting 39 -0.6
2019-Dec-08 15:48 252 26 gusting 39 -0.6
2019-Dec-08 15:43 252 26 gusting 39 -0.6
2019-Dec-08 15:38 253 25 gusting 39 -0.6
2019-Dec-08 15:33 257 22 gusting 33 -0.6
2019-Dec-08 15:28 259 22 gusting 33 -0.6
2019-Dec-08 15:23 260 21 gusting 32 -1.1
2019-Dec-08 15:18 261 20 gusting 32 -1.1
2019-Dec-08 15:13 261 19 gusting 31 -1.1
2019-Dec-08 15:08 262 19 gusting 29 -1.1
2019-Dec-08 15:03 263 20 gusting 33 -1.1
2019-Dec-08 14:58 263 21 gusting 33 -1.1
2019-Dec-08 14:53 259 20 gusting 33 -1.1
2019-Dec-08 14:48 259 19 gusting 31 -1.1
2019-Dec-08 14:43 260 20 gusting 33 -1.1
2019-Dec-08 14:38 261 19 gusting 33 -1.1
2019-Dec-08 14:33 263 18 gusting 26 -1.1
2019-Dec-08 14:28 264 19 gusting 27 -1.1
2019-Dec-08 14:23 263 19 gusting 29 -1.1
2019-Dec-08 14:18 258 19 gusting 29 -1.1
2019-Dec-08 14:13 256 18 gusting 27 -1.1
2019-Dec-08 14:08 257 18 gusting 26 -1.1
2019-Dec-08 14:03 255 18 gusting 26 -1.1
2019-Dec-08 13:58 254 16 gusting 26 -1.7
2019-Dec-08 13:53 252 16 gusting 22 -2.2
2019-Dec-08 13:48 249 17 gusting 24 -2.2
2019-Dec-08 13:43 247 17 gusting 24 -2.2
2019-Dec-08 13:38 246 18 gusting 28 -2.2
2019-Dec-08 13:33 244 18 gusting 28 -2.2
2019-Dec-08 13:28 244 17 gusting 26 -1.7
2019-Dec-08 13:23 243 16 gusting 26 -2.2
2019-Dec-08 13:18 242 14 gusting 24 -2.2
2019-Dec-08 13:13 244 13 gusting 24 -2.2
2019-Dec-08 13:08 247 13 gusting 20 -2.8
2019-Dec-08 13:03 245 13 gusting 22 -2.2
2019-Dec-08 12:58 247 11 gusting 22 -2.8
2019-Dec-08 12:53 256 7 gusting 14 -2.8
2019-Dec-08 12:48 256 6 gusting 14 -3.3
2019-Dec-08 12:43 268 2 gusting 14 -4.4
2019-Dec-08 12:38 017 0 gusting 5 -5.0
2019-Dec-08 12:33 103 0 gusting 4 -5.6
2019-Dec-08 12:28 094 0 gusting 4 -5.6
2019-Dec-08 12:23 059 0 gusting 4 -6.1
2019-Dec-08 12:18 057 0 gusting 4 -6.1
2019-Dec-08 12:13 057 -6.1
2019-Dec-08 12:08 057 0 gusting 2 -6.1
2019-Dec-08 12:03 057 0 gusting 4 -6.1
2019-Dec-08 11:58 057 0 gusting 4 -5.6
2019-Dec-08 11:53 057 0 gusting 4 -5.6
2019-Dec-08 11:48 056 1 gusting 6 -5.6
2019-Dec-08 11:43 056 2 gusting 6 -5.6
2019-Dec-08 11:38 059 1 gusting 6 -5.6
2019-Dec-08 11:33 056 1 gusting 6 -6.1
2019-Dec-08 11:28 025 0 gusting 4 -5.6
2019-Dec-08 11:23 025 0 gusting 4 -5.6
2019-Dec-08 11:18 023 0 gusting 4 -5.6
2019-Dec-08 11:13 036 1 gusting 6 -6.1
2019-Dec-08 11:08 050 2 gusting 6 -6.1
2019-Dec-08 11:03 059 4 gusting 6 -6.1
2019-Dec-08 10:58 072 4 gusting 6 -6.1
2019-Dec-08 10:53 078 6 gusting 10 -6.1
2019-Dec-08 10:48 066 7 gusting 12 -6.1
2019-Dec-08 10:43 046 7 gusting 12 -6.1
2019-Dec-08 10:38 036 6 gusting 11 -6.1
2019-Dec-08 10:33 040 6 gusting 11 -6.1
2019-Dec-08 10:28 048 6 gusting 10 -6.1
2019-Dec-08 10:23 046 6 gusting 10 -6.1
2019-Dec-08 10:18 049 4 gusting 10 -6.1
2019-Dec-08 10:13 057 5 gusting 8 -6.1
2019-Dec-08 10:08 063 4 gusting 8 -6.1
2019-Dec-08 10:03 060 2 gusting 6 -6.1
2019-Dec-08 09:58 059 1 gusting 6 -6.1
2019-Dec-08 09:53 059 1 gusting 2 -6.1
2019-Dec-08 09:48 059 1 gusting 4 -6.1
2019-Dec-08 09:43 059 1 gusting 4 -6.7
2019-Dec-08 09:38 058 1 gusting 4 -6.7
2019-Dec-08 09:33 057 1 gusting 5 -6.7
2019-Dec-08 09:28 060 1 gusting 5 -6.7
2019-Dec-08 09:23 063 1 gusting 4 -6.7
2019-Dec-08 09:18 063 1 gusting 4 -6.7
2019-Dec-08 09:13 085 1 gusting 4 -6.7
2019-Dec-08 09:08 109 1 gusting 4 -6.7
2019-Dec-08 09:03 128 1 gusting 4 -6.7
2019-Dec-08 08:58 128 0 gusting 4 -6.7
2019-Dec-08 08:53 127 -6.7
2019-Dec-08 08:48 128 0 gusting 2 -6.7
2019-Dec-08 08:43 128 0 gusting 2 -6.1
2019-Dec-08 08:38 128 0 gusting 2 -6.1
2019-Dec-08 08:33 128 0 gusting 2 -6.1
2019-Dec-08 08:28 130 0 gusting 2 -6.1
2019-Dec-08 08:23 130 0 gusting 2 -6.1
2019-Dec-08 08:18 140 1 gusting 6 -6.1
2019-Dec-08 08:13 144 2 gusting 6 -6.1
2019-Dec-08 08:08 145 2 gusting 6 -6.1
2019-Dec-08 08:03 147 1 gusting 5 -6.1
2019-Dec-08 07:58 138 2 gusting 6 -6.1
2019-Dec-08 07:53 129 5 gusting 10 -6.1
2019-Dec-08 07:48 130 5 gusting 10 -6.1
2019-Dec-08 07:43 131 4 gusting 10 -6.1
2019-Dec-08 07:38 131 4 gusting 8 -6.7
2019-Dec-08 07:33 130 6 gusting 11 -6.7
2019-Dec-08 07:28 129 6 gusting 12 -6.7
2019-Dec-08 07:23 126 4 gusting 12 -6.7
2019-Dec-08 07:18 118 2 gusting 8 -6.7
2019-Dec-08 07:13 112 5 gusting 8 -6.7
2019-Dec-08 07:08 111 5 gusting 10 -6.7
2019-Dec-08 07:03 116 6 gusting 13 -6.7
2019-Dec-08 06:58 122 6 gusting 13 -6.7
2019-Dec-08 06:53 124 8 gusting 13 -6.7
2019-Dec-08 06:48 129 11 gusting 16 -6.7
2019-Dec-08 06:43 130 11 gusting 16 -6.7
2019-Dec-08 06:38 131 8 gusting 13 -6.7
2019-Dec-08 06:33 132 6 gusting 13 -6.7
2019-Dec-08 06:28 131 6 gusting 13 -6.7
2019-Dec-08 06:23 131 7 gusting 13 -6.7
2019-Dec-08 06:18 130 10 gusting 13 -6.7
2019-Dec-08 06:13 130 10 gusting 13 -6.7
2019-Dec-08 06:08 130 8 gusting 13 -6.7
2019-Dec-08 06:03 131 6 gusting 13 -6.7
2019-Dec-08 05:58 141 7 gusting 13 -6.7
2019-Dec-08 05:53 150 8 gusting 13 -6.1
2019-Dec-08 05:48 149 8 gusting 13 -6.1
2019-Dec-08 05:43 147 6 gusting 13 -6.1
2019-Dec-08 05:38 147 6 gusting 11 -6.7
2019-Dec-08 05:33 147 6 gusting 12 -6.7
2019-Dec-08 05:28 147 6 gusting 13 -6.7
2019-Dec-08 05:23 148 7 gusting 13 -6.7
2019-Dec-08 05:18 149 7 gusting 13 -6.1
2019-Dec-08 05:13 150 6 gusting 13 -6.7
2019-Dec-08 05:08 151 6 gusting 12 -6.7
2019-Dec-08 05:03 143 4 gusting 12 -6.7
2019-Dec-08 04:58 127 4 gusting 12 -6.7
2019-Dec-08 04:53 125 5 gusting 12 -6.7
2019-Dec-08 04:48 122 4 gusting 11 -6.1
2019-Dec-08 04:43 125 2 gusting 11 -6.1
2019-Dec-08 04:38 120 1 gusting 6 -6.1
2019-Dec-08 04:33 116 1 gusting 6 -6.1
2019-Dec-08 04:28 122 2 gusting 6 -6.1
2019-Dec-08 04:23 143 5 gusting 13 -6.1
2019-Dec-08 04:18 143 5 gusting 13 -6.1
2019-Dec-08 04:13 129 1 gusting 12 -6.7
2019-Dec-08 04:08 097 0 gusting 2 -6.7
2019-Dec-08 04:03 098 1 gusting 2 -6.7
2019-Dec-08 03:58 098 1 gusting 4 -6.7
2019-Dec-08 03:53 110 2 gusting 5 -6.7
2019-Dec-08 03:48 123 4 gusting 6 -6.1
2019-Dec-08 03:43 116 4 gusting 6 -6.7
2019-Dec-08 03:38 093 0 gusting 6 -6.7
2019-Dec-08 03:33 -6.7
2019-Dec-08 03:28 047 -6.1
2019-Dec-08 03:23 047 -6.1
2019-Dec-08 03:18 047 -6.1
2019-Dec-08 03:13 -6.1
2019-Dec-08 03:08 046 -6.1
2019-Dec-08 03:03 046 -6.1
2019-Dec-08 02:58 047 -6.1
2019-Dec-08 02:53 047 -5.6
2019-Dec-08 02:48 047 -5.6
2019-Dec-08 02:43 047 -5.6
2019-Dec-08 02:38 047 -5.6
2019-Dec-08 02:33 047 -5.6
2019-Dec-08 02:28 047 -5.6
2019-Dec-08 02:23 047 -5.6
2019-Dec-08 02:18 047 -5.6
2019-Dec-08 02:13 047 -5.6
2019-Dec-08 02:08 047 0 gusting 2 -5.6
2019-Dec-08 02:03 088 1 gusting 4 -5.6
2019-Dec-08 01:58 103 0 gusting 4 -5.6
2019-Dec-08 01:53 110 -5.6
2019-Dec-08 01:48 110 -5.6
2019-Dec-08 01:43 110 -5.6
2019-Dec-08 01:38 110 0 gusting 1 -5.6
2019-Dec-08 01:33 110 0 gusting 2 -5.6
2019-Dec-08 01:28 110 -5.6
2019-Dec-08 01:23 110 -5.6
2019-Dec-08 01:18 110 0 gusting 2 -5.6
2019-Dec-08 01:13 110 1 gusting 2 -5.6
2019-Dec-08 01:08 110 0 gusting 2 -5.6
2019-Dec-08 01:03 110 -5.6
2019-Dec-08 00:58 110 1 gusting 5 -5.0
2019-Dec-08 00:53 110 2 gusting 5 -5.0
2019-Dec-08 00:48 110 0 gusting 4 -5.6
2019-Dec-08 00:43 110 -5.6
2019-Dec-08 00:38 110 -5.6
2019-Dec-08 00:33 110 0 gusting 2 -5.0
2019-Dec-08 00:28 113 1 gusting 5 -5.0
2019-Dec-08 00:23 118 5 gusting 8 -5.0
2019-Dec-08 00:18 112 6 gusting 10 -5.0
2019-Dec-08 00:13 106 2 gusting 10 -5.0
2019-Dec-08 00:08 117 0 gusting 5 -5.0
2019-Dec-08 00:03 116 2 gusting 6 -5.0
2019-Dec-07 23:58 115 2 gusting 6 -5.0
2019-Dec-07 23:53 120 2 gusting 6 -5.0
2019-Dec-07 23:48 142 1 gusting 6 -5.0
2019-Dec-07 23:43 277 1 gusting 12 -4.4
2019-Dec-07 23:38 299 4 gusting 12 -4.4
2019-Dec-07 23:33 295 6 gusting 11 -5.0
2019-Dec-07 23:28 295 6 gusting 11 -5.0
2019-Dec-07 23:23 281 6 gusting 17 -5.0
2019-Dec-07 23:18 268 8 gusting 17 -5.0
2019-Dec-07 23:13 247 12 gusting 19 -5.0
2019-Dec-07 23:08 248 13 gusting 20 -5.0
2019-Dec-07 23:03 255 7 gusting 20 -4.4
2019-Dec-07 22:58 263 1 gusting 18 -5.0
2019-Dec-07 22:53 041 0 gusting 4 -5.0
2019-Dec-07 22:48 267 2 gusting 13 -5.0
2019-Dec-07 22:43 240 7 gusting 13 -4.4
2019-Dec-07 22:38 229 7 gusting 13 -5.0
2019-Dec-07 22:33 214 4 gusting 13 -4.4
2019-Dec-07 22:28 334 1 gusting 13 -5.0
2019-Dec-07 22:23 271 4 gusting 12 -5.0
2019-Dec-07 22:18 270 6 gusting 16 -5.0
2019-Dec-07 22:13 271 8 gusting 16 -5.0
2019-Dec-07 22:08 275 8 gusting 16 -5.0
2019-Dec-07 22:03 278 7 gusting 16 -5.0
2019-Dec-07 21:58 290 6 gusting 13 -5.0
2019-Dec-07 21:53 295 6 gusting 12 -5.0
2019-Dec-07 21:48 281 6 gusting 10 -5.0
2019-Dec-07 21:43 256 6 gusting 11 -5.0
2019-Dec-07 21:38 252 5 gusting 11 -4.4
2019-Dec-07 21:33 294 5 gusting 10 -4.4
2019-Dec-07 21:28 328 6 gusting 13 -4.4
2019-Dec-07 21:23 332 6 gusting 13 -4.4
2019-Dec-07 21:18 322 6 gusting 13 -4.4
2019-Dec-07 21:13 313 6 gusting 13 -4.4
2019-Dec-07 21:08 332 6 gusting 13 -4.4
2019-Dec-07 21:03 351 5 gusting 13 -4.4
2019-Dec-07 20:58 337 6 gusting 13 -4.4
2019-Dec-07 20:53 307 6 gusting 14 -4.4
2019-Dec-07 20:48 311 6 gusting 14 -4.4
2019-Dec-07 20:43 316 6 gusting 13 -4.4
2019-Dec-07 20:38 299 6 gusting 12 -4.4
2019-Dec-07 20:33 285 6 gusting 12 -5.0
2019-Dec-07 20:28 291 6 gusting 13 -4.4
2019-Dec-07 20:23 296 6 gusting 13 -5.0
2019-Dec-07 20:18 284 6 gusting 13 -5.0
2019-Dec-07 20:13 287 7 gusting 14 -4.4
2019-Dec-07 20:08 292 6 gusting 14 -5.0
2019-Dec-07 20:03 298 6 gusting 13 -5.0
2019-Dec-07 19:58 303 6 gusting 13 -5.0
2019-Dec-07 19:53 300 6 gusting 12 -5.0
2019-Dec-07 19:48 284 6 gusting 12 -5.0
2019-Dec-07 19:43 273 6 gusting 12 -5.0
2019-Dec-07 19:38 273 7 gusting 16 -4.4
2019-Dec-07 19:33 272 6 gusting 16 -4.4
2019-Dec-07 19:28 279 6 gusting 13 -4.4
2019-Dec-07 19:23 281 6 gusting 13 -4.4
2019-Dec-07 19:18 273 6 gusting 14 -4.4
2019-Dec-07 19:13 270 7 gusting 14 -4.4
2019-Dec-07 19:08 271 6 gusting 14 -4.4
2019-Dec-07 19:03 275 5 gusting 13 -5.0
2019-Dec-07 18:58 286 6 gusting 14 -4.4
2019-Dec-07 18:53 287 8 gusting 17 -4.4
2019-Dec-07 18:48 288 7 gusting 17 -4.4
2019-Dec-07 18:43 295 5 gusting 14 -4.4
2019-Dec-07 18:38 343 1 gusting 6 -5.0
2019-Dec-07 18:33 342 0 gusting 6 -4.4
2019-Dec-07 18:28 333 2 gusting 18 -4.4
2019-Dec-07 18:23 326 6 gusting 18 -4.4
2019-Dec-07 18:18 310 10 gusting 19 -4.4
2019-Dec-07 18:13 300 13 gusting 19 -4.4
2019-Dec-07 18:08 294 14 gusting 24 -4.4
2019-Dec-07 18:03 287 13 gusting 24 -4.4
2019-Dec-07 17:58 283 13 gusting 25 -4.4
2019-Dec-07 17:53 285 13 gusting 25 -3.9
2019-Dec-07 17:48 286 13 gusting 21 -3.9
2019-Dec-07 17:43 284 13 gusting 21 -3.9
2019-Dec-07 17:38 287 13 gusting 24 -3.9
2019-Dec-07 17:33 288 12 gusting 24 -4.4
2019-Dec-07 17:28 286 12 gusting 20 -4.4
2019-Dec-07 17:23 283 13 gusting 26 -4.4
2019-Dec-07 17:18 277 16 gusting 26 -3.9
2019-Dec-07 17:13 275 14 gusting 26 -3.9
2019-Dec-07 17:08 274 14 gusting 24 -3.9
2019-Dec-07 17:03 272 16 gusting 24 -3.9
2019-Dec-07 16:58 271 16 gusting 26 -3.9
2019-Dec-07 16:53 273 14 gusting 26 -3.9
2019-Dec-07 16:48 274 13 gusting 26 -3.9
2019-Dec-07 16:43 278 13 gusting 24 -3.9
2019-Dec-07 16:38 278 13 gusting 24 -3.9
2019-Dec-07 16:33 279 14 gusting 24 -3.9
2019-Dec-07 16:28 278 14 gusting 25 -4.4
2019-Dec-07 16:23 280 14 gusting 25 -3.9
2019-Dec-07 16:18 293 13 gusting 25 -3.9
2019-Dec-07 16:13 296 13 gusting 24 -3.9
2019-Dec-07 16:08 287 14 gusting 27 -3.9
2019-Dec-07 16:03 282 17 gusting 31 -3.9
2019-Dec-07 15:58 279 19 gusting 33 -3.9
2019-Dec-07 15:53 275 19 gusting 33 -3.3
2019-Dec-07 15:48 276 19 gusting 33 -3.3
2019-Dec-07 15:43 274 19 gusting 36 -3.3
2019-Dec-07 15:38 274 19 gusting 36 -3.3
2019-Dec-07 15:33 273 18 gusting 32 -3.9
2019-Dec-07 15:28 273 17 gusting 32 -3.9
2019-Dec-07 15:23 275 17 gusting 28 -3.9
2019-Dec-07 15:18 278 18 gusting 29 -3.9
2019-Dec-07 15:13 276 19 gusting 29 -3.9
2019-Dec-07 15:08 276 19 gusting 29 -3.9
2019-Dec-07 15:03 278 14 gusting 29 -3.9
2019-Dec-07 14:58 282 13 gusting 24 -3.9
2019-Dec-07 14:53 288 13 gusting 24 -3.9
2019-Dec-07 14:48 291 13 gusting 24 -3.9
2019-Dec-07 14:43 297 11 gusting 22 -3.9
2019-Dec-07 14:38 293 11 gusting 22 -3.9
2019-Dec-07 14:33 288 13 gusting 19 -3.9
2019-Dec-07 14:28 283 13 gusting 22 -3.9
2019-Dec-07 14:23 279 13 gusting 22 -3.3
2019-Dec-07 14:18 283 14 gusting 25 -3.3
2019-Dec-07 14:13 288 17 gusting 26 -3.3
2019-Dec-07 14:08 292 17 gusting 28 -3.3
2019-Dec-07 14:03 292 17 gusting 29 -3.3
2019-Dec-07 13:58 291 17 gusting 29 -3.3
2019-Dec-07 13:53 293 16 gusting 29 -3.3
2019-Dec-07 13:48 291 17 gusting 27 -3.3
2019-Dec-07 13:43 290 19 gusting 31 -3.3
2019-Dec-07 13:38 288 17 gusting 31 -3.3
2019-Dec-07 13:33 282 14 gusting 22 -3.3
2019-Dec-07 13:28 285 16 gusting 27 -3.3
2019-Dec-07 13:23 285 19 gusting 31 -2.8
2019-Dec-07 13:18 288 21 gusting 35 -2.8
2019-Dec-07 13:13 294 20 gusting 35 -2.2
2019-Dec-07 13:08 296 19 gusting 34 -2.8
2019-Dec-07 13:03 297 19 gusting 33 -2.8
2019-Dec-07 12:58 294 19 gusting 33 -2.8
2019-Dec-07 12:53 291 19 gusting 33 -2.8
2019-Dec-07 12:48 290 20 gusting 33 -2.8
2019-Dec-07 12:43 291 21 gusting 33 -2.8
2019-Dec-07 12:38 290 19 gusting 31 -2.8
2019-Dec-07 12:33 291 18 gusting 31 -2.8
2019-Dec-07 12:28 292 19 gusting 28 -2.8
2019-Dec-07 12:23 291 20 gusting 28 -2.8
2019-Dec-07 12:18 291 19 gusting 28 -2.8
2019-Dec-07 12:13 291 19 gusting 31 -2.8
2019-Dec-07 12:08 291 18 gusting 31 -2.8
2019-Dec-07 12:03 290 19 gusting 26 -2.8
2019-Dec-07 11:58 290 19 gusting 26 -2.8
2019-Dec-07 11:53 291 19 gusting 33 -2.8
2019-Dec-07 11:48 291 20 gusting 33 -2.8
2019-Dec-07 11:43 291 20 gusting 32 -2.8
2019-Dec-07 11:38 291 19 gusting 31 -2.8
2019-Dec-07 11:33 291 19 gusting 31 -2.8
2019-Dec-07 11:28 291 21 gusting 33 -2.8
2019-Dec-07 11:23 289 20 gusting 33 -2.8
2019-Dec-07 11:18 287 19 gusting 32 -2.8
2019-Dec-07 11:13 289 19 gusting 31 -2.8
2019-Dec-07 11:08 290 17 gusting 28 -2.8
2019-Dec-07 11:03 292 17 gusting 28 -2.8
2019-Dec-07 10:58 289 19 gusting 33 -2.8
2019-Dec-07 10:53 288 19 gusting 33 -2.8
2019-Dec-07 10:48 288 19 gusting 28 -2.8
2019-Dec-07 10:43 285 18 gusting 33 -2.8
2019-Dec-07 10:38 281 19 gusting 33 -2.8
2019-Dec-07 10:33 277 18 gusting 32 -2.8
2019-Dec-07 10:28 275 18 gusting 32 -2.8
2019-Dec-07 10:23 277 17 gusting 25 -2.8
2019-Dec-07 10:18 276 16 gusting 25 -2.8
2019-Dec-07 10:13 281 16 gusting 24 -2.8
2019-Dec-07 10:08 286 16 gusting 25 -2.2
2019-Dec-07 10:03 285 18 gusting 26 -2.2
2019-Dec-07 09:58 283 19 gusting 31 -2.2
2019-Dec-07 09:53 278 18 gusting 31 -2.2
2019-Dec-07 09:48 277 19 gusting 33 -2.2
2019-Dec-07 09:43 277 19 gusting 33 -2.2
2019-Dec-07 09:38 277 18 gusting 31 -2.2
2019-Dec-07 09:33 278 18 gusting 31 -2.2
2019-Dec-07 09:28 278 19 gusting 32 -2.2
2019-Dec-07 09:23 277 19 gusting 32 -1.7
2019-Dec-07 09:18 278 19 gusting 28 -2.2
2019-Dec-07 09:13 277 19 gusting 31 -1.7
2019-Dec-07 09:08 278 17 gusting 31 -1.7
2019-Dec-07 09:03 281 17 gusting 32 -1.7
2019-Dec-07 08:58 282 18 gusting 32 -1.7
2019-Dec-07 08:53 282 18 gusting 26 -1.7
2019-Dec-07 08:48 282 17 gusting 26 -1.7
2019-Dec-07 08:43 284 17 gusting 27 -1.7
2019-Dec-07 08:38 285 17 gusting 27 -1.7
2019-Dec-07 08:33 290 18 gusting 26 -1.7
2019-Dec-07 08:28 291 18 gusting 26 -1.7
2019-Dec-07 08:23 283 16 gusting 26 -1.7
2019-Dec-07 08:18 280 13 gusting 26 -1.7
2019-Dec-07 08:13 278 13 gusting 22 -2.2
2019-Dec-07 08:08 278 13 gusting 22 -2.2
2019-Dec-07 08:03 279 13 gusting 21 -2.2
2019-Dec-07 07:58 286 13 gusting 22 -1.7
2019-Dec-07 07:53 292 13 gusting 22 -1.7
2019-Dec-07 07:48 294 13 gusting 25 -1.7
2019-Dec-07 07:43 295 13 gusting 25 -1.7
2019-Dec-07 07:38 294 14 gusting 26 -1.7
2019-Dec-07 07:33 293 14 gusting 26 -1.7
2019-Dec-07 07:28 291 14 gusting 27 -1.7
2019-Dec-07 07:23 290 14 gusting 27 -1.7
2019-Dec-07 07:18 289 16 gusting 26 -1.7
2019-Dec-07 07:13 291 17 gusting 26 -1.7
2019-Dec-07 07:08 292 17 gusting 26 -1.7
2019-Dec-07 07:03 293 14 gusting 26 -1.7
2019-Dec-07 06:58 295 14 gusting 24 -1.7
2019-Dec-07 06:53 293 14 gusting 24 -1.7
2019-Dec-07 06:48 291 14 gusting 24 -1.7
2019-Dec-07 06:43 293 14 gusting 22 -1.7
2019-Dec-07 06:38 294 13 gusting 22 -1.7
2019-Dec-07 06:33 290 13 gusting 24 -1.7
2019-Dec-07 06:28 289 13 gusting 24 -1.7
2019-Dec-07 06:23 293 13 gusting 19 -1.7
2019-Dec-07 06:18 293 13 gusting 19 -1.7
2019-Dec-07 06:13 293 11 gusting 19 -1.7
2019-Dec-07 06:08 296 7 gusting 19 -1.7
2019-Dec-07 06:03 307 5 gusting 14 -2.2
2019-Dec-07 05:58 320 4 gusting 11 -2.2
2019-Dec-07 05:53 325 4 gusting 11 -2.2
2019-Dec-07 05:48 327 6 gusting 12 -1.7
2019-Dec-07 05:43 322 6 gusting 13 -1.7
2019-Dec-07 05:38 310 4 gusting 13 -2.2
2019-Dec-07 05:33 292 5 gusting 13 -2.2
2019-Dec-07 05:28 283 7 gusting 13 -1.7
2019-Dec-07 05:23 274 8 gusting 17 -1.7
2019-Dec-07 05:18 271 7 gusting 17 -1.7
2019-Dec-07 05:13 272 7 gusting 14 -1.7
2019-Dec-07 05:08 277 10 gusting 17 -1.7
2019-Dec-07 05:03 279 8 gusting 17 -1.7
2019-Dec-07 04:58 283 10 gusting 16 -1.7
2019-Dec-07 04:53 289 12 gusting 18 -1.7
2019-Dec-07 04:48 293 13 gusting 20 -1.1
2019-Dec-07 04:43 293 8 gusting 20 -1.1
2019-Dec-07 04:38 301 5 gusting 14 -1.7
2019-Dec-07 04:33 304 2 gusting 8 -1.7
2019-Dec-07 04:28 299 2 gusting 6 -1.7
2019-Dec-07 04:23 304 1 gusting 6 -1.7
2019-Dec-07 04:18 306 0 gusting 6 -1.7
2019-Dec-07 04:13 333 1 gusting 6 -1.7
2019-Dec-07 04:08 325 4 gusting 6 -1.1
2019-Dec-07 04:03 323 4 gusting 6 -1.1
2019-Dec-07 03:58 320 4 gusting 8 -1.1
2019-Dec-07 03:53 314 5 gusting 11 -1.1
2019-Dec-07 03:48 309 5 gusting 11 -1.1
2019-Dec-07 03:43 299 4 gusting 10 -1.1
2019-Dec-07 03:38 283 2 gusting 10 -1.1
2019-Dec-07 03:33 292 4 gusting 6 -0.6
2019-Dec-07 03:28 294 4 gusting 6 -0.6
2019-Dec-07 03:23 296 6 gusting 12 -0.6
2019-Dec-07 03:18 302 6 gusting 13 -0.6
2019-Dec-07 03:13 301 8 gusting 14 -0.6
2019-Dec-07 03:08 296 8 gusting 14 -0.0
2019-Dec-07 03:03 293 10 gusting 16 -0.0
2019-Dec-07 02:58 296 11 gusting 19 -0.0
2019-Dec-07 02:53 297 11 gusting 19 0.6
2019-Dec-07 02:48 284 11 gusting 16 0.6
2019-Dec-07 02:43 278 8 gusting 16 0.6
2019-Dec-07 02:38 278 6 gusting 16 0.6
2019-Dec-07 02:33 292 4 gusting 6 0.6
2019-Dec-07 02:28 292 6 gusting 11 0.6
2019-Dec-07 02:23 288 6 gusting 11 0.6
2019-Dec-07 02:18 284 2 gusting 10 0.6
2019-Dec-07 02:13 296 1 gusting 5 -0.0
2019-Dec-07 02:08 306 4 gusting 6 0.6
2019-Dec-07 02:03 311 4 gusting 8 0.6
2019-Dec-07 01:58 300 4 gusting 8 -0.0
2019-Dec-07 01:53 280 2 gusting 6 -0.0
2019-Dec-07 01:48 280 2 gusting 6 0.6
2019-Dec-07 01:43 280 2 gusting 6 0.6
2019-Dec-07 01:38 257 2 gusting 6 0.6
2019-Dec-07 01:33 243 1 gusting 5 0.6
2019-Dec-07 01:28 235 1 gusting 4 0.6
2019-Dec-07 01:23 233 1 gusting 4 0.6
2019-Dec-07 01:18 233 2 gusting 4 0.6
2019-Dec-07 01:13 241 4 gusting 5 0.6
2019-Dec-07 01:08 253 4 gusting 5 0.6
2019-Dec-07 01:03 255 2 gusting 5 -0.0
2019-Dec-07 00:58 250 1 gusting 4 0.6
2019-Dec-07 00:53 238 1 gusting 4 0.6
2019-Dec-07 00:48 234 2 gusting 5 0.6
2019-Dec-07 00:43 236 4 gusting 5 0.6
2019-Dec-07 00:38 243 2 gusting 5 0.6
2019-Dec-07 00:33 245 1 gusting 4 0.6
2019-Dec-07 00:28 245 1 gusting 4 0.6
2019-Dec-07 00:23 240 2 gusting 4 0.6
2019-Dec-07 00:18 224 2 gusting 4 0.6
2019-Dec-07 00:13 215 1 gusting 4 0.6
2019-Dec-07 00:08 212 2 gusting 5 0.6
2019-Dec-07 00:03 214 4 gusting 6 0.6
2019-Dec-06 23:58 240 4 gusting 6 0.6
2019-Dec-06 23:53 266 2 gusting 5 -0.0
2019-Dec-06 23:48 254 4 gusting 5 -0.0
2019-Dec-06 23:43 235 4 gusting 6 -0.0
2019-Dec-06 23:38 250 4 gusting 6 -0.0
2019-Dec-06 23:33 263 4 gusting 6 -0.6
2019-Dec-06 23:28 262 2 gusting 5 -0.6
2019-Dec-06 23:23 257 2 gusting 5 -0.0
2019-Dec-06 23:18 253 2 gusting 5 -0.0
2019-Dec-06 23:13 239 2 gusting 6 -0.0
2019-Dec-06 23:08 223 2 gusting 6 -0.0
2019-Dec-06 23:03 205 1 gusting 5 -0.6